EHI
3 3 3 3 3 3 3 3 3 2 1 0 0 0 0 0 0 0 0 0 0 0 0 0 0 0 0 0 0 0 0 0 0 0 0 0 0 0
3 3 3 3 3 3 3 3 3 3 2 1 0 0 0 0 0 0 0 0 0 0 0 0 0 0 0 0 0 0 0 0 0 0 0 0 0 0
3 3 3 3 3 3 3 3 3 3 3 2 1 0 0 0 0 0 0 0 0 0 0 0 0 0 0 0 0 0 0 0 0 0 0 0 0 0
3 3 3 3 3 3 3 3 3 3 2 2 1 0 0 0 0 0 0 0 0 0 0 0 0 0 0 0 0 0 0 0 0 0 0 0 0 0
3 3 3 3 3 3 4 4 3 2 1 1 0 0 0 0 0 0 0 0 0 0 0 0 0 0 0 0 0 0 0 0 0 0 0 0 0 0
3 3 3 3 3 4 4 5 4 1 0 0 0 0 0 0 0 0 0 0 0 0 0 0 0 0 0 0 0 0 0 0 0 0 0 0 0 0
2 3 3 3 3 3 4 3 2 1 0 0 0 1 1 1 1 0 0 0 0 0 0 0 0 0 0 0 0 0 0 0 0 0 0 0 0 0
1 1 2 3 3 3 2 1 1 0 1 2 2 2 2 2 2 1 1 1 1 1 0 0 0 0 0 0 0 0 0 0 0 0 0 0 0 0
0 0 1 2 3 3 2 1 1 1 2 3 3 3 3 3 3 2 2 2 2 2 1 1 1 1 0 0 0 0 0 0 0 0 0 0 0 0
0 0 1 2 3 3 2 2 2 2 2 2 2 2 2 2 2 2 1 1 1 2 2 2 2 1 1 1 0 0 0 0 0 0 0 0 0 0
0 0 1 1 1 1 1 2 3 3 2 1 1 1 1 1 1 2 2 1 1 1 1 2 2 1 1 0 0 0 0 0 0 0 0 0 0 0
0 0 0 0 0 0 0 1 2 2 2 2 1 1 0 0 1 2 3 3 2 2 1 1 1 1 0 0 0 0 0 0 0 0 0 0 0 0
1 0 0 0 0 0 0 0 1 1 2 2 2 2 1 1 1 1 2 3 3 3 2 1 1 1 0 0 0 0 0 0 0 0 0 0 0 0
1 0 0 0 0 0 0 0 0 0 1 1 2 2 2 2 2 2 2 2 3 3 2 1 0 0 0 0 0 0 0 0 0 0 0 0 0 0
1 0 0 0 0 0 0 0 0 0 0 0 1 1 2 2 3 2 1 1 1 2 2 1 0 0 0 0 0 0 0 0 0 0 0 0 0 0
0 0 0 0 0 0 0 0 0 0 0 0 0 0 1 1 2 3 2 1 1 1 1 0 0 0 0 0 0 0 0 0 0 0 0 0 0 0
0 0 0 0 0 0 0 0 0 0 0 0 0 0 0 0 1 2 2 2 1 1 1 0 0 0 0 0 0 0 0 0 0 0 0 0 0 0
0 0 0 0 0 0 0 0 0 0 0 0 0 0 0 0 0 1 1 2 2 1 1 0 0 0 0 0 0 0 0 0 0 0 0 0 0 0
0 0 0 0 0 0 0 0 0 0 0 0 0 0 0 0 0 0 0 1 2 1 1 0 0 0 0 0 0 0 0 0 0 0 0 0 0 0
0 0 0 0 0 0 0 0 0 0 0 0 0 0 0 0 0 0 0 0 1 1 1 0 0 0 0 0 0 0 0 0 0 0 0 0 0 0
0 0 0 0 0 0 0 0 0 0 0 0 0 0 0 0 0 0 0 0 0 1 1 0 0 0 0 0 0 0 0 0 0 0 0 0 0 0
0 0 0 0 0 0 0 0 0 0 0 0 0 0 0 0 0 0 0 0 0 0 0 0 0 0 0 0 0 0 0 0 0 0 0 0 0 0
0 0 0 0 0 0 0 0 0 0 0 0 0 0 0 0 0 0 0 0 0 0 0 0 0 0 0 0 0 0 0 0 0 0 0 0 0 0
Wind_Speed
3 4 3 3 3 3 3 3 3 2 3 3 2 2 2 2 3 2 2 3 4 4 4 5 5 5 5 6 6 6 7 8 8 8 8 9 9 8
2 3 3 3 3 3 3 3 3 3 3 2 3 2 2 2 3 3 3 3 4 4 4 5 5 5 5 5 5 6 7 7 8 8 8 8 8 9
2 3 3 3 2 2 3 3 3 4 4 3 2 2 2 3 2 2 2 2 2 3 4 4 5 5 5 5 5 6 6 7 8 8 8 8 8 9
3 3 3 2 3 2 2 3 3 4 4 4 2 2 2 2 2 2 2 2 2 3 4 4 5 5 5 5 5 6 6 6 7 7 7 8 8 8
3 3 3 3 3 3 3 3 3 3 3 3 3 1 1 1 1 1 2 2 2 2 3 4 4 5 5 5 5 5 6 6 7 7 7 7 7 7
3 4 4 4 4 4 3 3 3 2 2 2 2 1 1 1 1 1 1 1 2 2 2 2 3 4 4 4 4 4 5 6 6 7 7 7 6 6
3 4 4 4 5 4 3 3 3 3 2 2 2 1 1 1 1 2 2 2 2 2 2 2 2 2 2 3 4 4 4 5 5 6 6 6 6 5
4 4 3 3 3 3 3 3 4 4 4 3 2 2 3 3 2 2 2 1 2 1 2 2 1 2 2 2 2 3 4 4 5 5 5 5 6 6
3 3 3 2 2 2 2 2 2 4 5 5 4 4 3 4 3 3 3 3 3 1 1 2 1 2 2 2 2 2 2 3 4 5 5 5 6 6
3 3 3 3 3 3 2 2 2 2 4 4 4 4 4 4 4 4 4 3 2 1 2 2 2 2 2 2 1 2 2 3 3 4 4 5 5 5
2 3 3 3 3 2 2 2 2 2 2 3 3 3 3 3 3 2 2 2 2 2 2 2 1 1 1 2 1 2 2 3 3 4 4 3 4 4
1 2 2 2 2 2 3 3 3 3 2 1 1 2 2 2 2 3 3 3 2 2 2 2 1 1 1 1 1 1 1 2 3 4 4 3 3 3
1 1 1 1 1 2 3 3 4 3 2 1 1 1 1 1 1 2 3 4 3 3 2 3 2 2 2 1 1 1 2 1 2 2 4 4 4 4
2 1 1 1 1 1 1 2 2 2 1 1 1 1 1 2 2 2 3 4 4 4 3 3 2 3 2 2 2 1 2 2 2 2 2 3 4 5
1 1 1 2 1 0 0 1 1 1 1 1 2 2 2 2 2 1 1 2 2 2 2 2 2 3 3 3 2 2 2 2 2 2 3 3 3 3
0 1 2 2 2 2 1 1 0 0 1 2 2 1 1 1 1 1 1 1 1 2 1 2 2 3 3 3 3 3 2 2 2 3 3 3 3 4
1 1 2 2 1 1 1 1 0 0 0 1 1 1 1 1 1 1 1 1 1 2 2 1 1 2 3 3 3 3 3 2 2 3 3 3 4 4
3 1 1 1 1 1 1 1 1 1 1 1 1 1 1 2 2 1 1 1 2 2 2 1 1 0 1 2 4 4 3 3 3 3 3 4 4 4
2 1 0 1 1 1 1 1 1 1 1 1 1 2 2 1 2 2 2 2 2 2 2 2 2 2 2 3 3 4 4 3 2 3 3 4 5 4
1 1 1 1 1 1 2 2 2 1 1 1 1 1 1 1 2 2 2 3 3 3 3 2 2 3 4 4 3 3 5 4 3 4 3 3 3 3
1 1 2 2 2 2 2 2 2 1 1 1 1 1 1 1 2 2 3 3 3 3 3 3 3 4 3 2 3 3 3 4 5 4 3 3 3 3
1 2 2 2 2 2 2 2 1 1 2 2 1 1 1 2 2 3 3 3 2 3 3 3 2 2 2 3 4 4 4 3 3 4 5 5 3 4
2 2 2 2 2 2 2 2 2 1 2 2 2 1 1 2 2 2 2 3 2 3 3 2 2 2 2 3 3 3 4 3 2 2 2 3 5 6
Wind_Direction
221 214 216 217 207 209 205 197 201 245 265 257 255 259 252 237 236 233 248 260 251 245 246 249 249 247 244 242 240 237 231 225 224 224 227 224 222 225
221 216 223 223 211 207 207 208 208 214 247 249 237 260 262 255 235 231 242 262 259 254 251 248 249 247 244 241 237 235 228 223 220 221 219 219 220 222
232 221 229 220 214 213 207 207 210 208 237 259 241 253 242 255 260 237 243 242 257 258 259 257 252 248 247 244 238 233 226 221 220 217 214 218 219 220
238 230 239 227 223 222 214 217 218 214 222 253 256 241 245 254 250 240 252 245 248 257 256 260 257 250 247 243 238 234 227 220 218 216 215 216 216 219
235 233 239 227 231 227 219 224 229 224 217 230 248 241 258 281 279 265 258 260 260 262 253 251 256 253 248 241 237 231 224 219 216 213 213 214 215 215
240 237 237 229 228 227 224 225 220 213 210 223 235 242 251 278 266 267 275 259 259 270 276 266 264 258 259 252 241 231 222 216 210 207 207 205 204 205
251 245 241 229 226 222 223 218 206 202 199 214 233 228 232 236 246 245 254 264 248 239 262 266 269 273 269 261 245 234 217 211 207 201 200 199 195 196
253 258 252 238 236 233 231 216 202 199 204 203 217 236 244 234 232 233 236 258 269 235 242 262 240 263 273 266 264 238 219 208 202 194 191 192 191 192
247 256 262 260 245 244 245 228 214 207 199 193 205 227 237 233 222 228 228 235 248 249 225 261 253 258 268 270 243 223 207 199 197 190 189 193 194 196
251 247 247 260 254 230 219 232 245 240 218 205 210 225 234 234 221 222 226 233 259 242 207 251 261 262 280 273 223 202 201 193 189 187 190 196 198 200
269 263 250 247 253 217 199 217 245 262 239 201 209 235 243 241 214 200 203 206 242 238 207 230 254 272 277 271 257 190 194 200 199 197 196 194 198 202
289 293 276 253 238 201 205 210 226 246 260 289 287 291 277 260 212 211 211 212 216 230 197 201 212 217 268 262 272 230 207 218 217 211 205 199 192 196
260 294 298 267 219 203 204 215 227 230 225 222 249 277 284 280 249 236 228 219 214 226 196 186 202 205 227 258 264 240 224 227 221 218 212 207 197 192
224 263 284 277 231 214 213 233 222 202 188 198 244 271 277 275 269 256 248 240 232 230 207 189 200 202 209 234 255 249 237 222 215 225 226 211 208 209
224 243 302 323 332 357 333 258 209 183 181 211 243 256 259 260 267 260 260 255 249 246 198 202 209 208 212 223 231 229 245 240 217 223 228 222 218 208
124 69 52 42 39 41 33 38 322 225 214 231 253 271 288 281 276 268 247 262 262 279 266 232 222 212 222 232 221 228 228 224 221 233 230 228 222 220
130 87 57 36 30 14 11 24 14 40 284 283 276 278 289 298 293 286 266 252 248 265 281 294 272 255 242 230 231 234 235 244 234 223 222 232 232 226
112 92 62 33 316 295 295 307 306 296 284 277 274 264 271 288 297 294 271 249 253 257 260 260 241 296 300 263 231 236 238 243 248 232 229 238 243 233
108 118 230 263 285 290 285 282 283 288 289 279 270 268 269 281 284 277 266 263 267 265 258 247 229 220 252 274 266 222 238 252 244 236 238 245 250 245
146 225 263 273 281 286 282 280 283 288 283 280 274 280 286 285 290 284 266 260 264 266 265 253 234 233 240 252 259 261 233 236 238 242 246 257 266 254
218 251 265 268 272 271 268 269 272 278 280 274 280 289 289 289 289 292 286 272 264 266 264 264 263 254 251 247 256 269 262 235 236 243 237 246 259 254
237 252 266 269 271 278 279 274 273 283 290 286 282 278 280 278 286 293 294 293 289 282 280 287 287 258 241 246 261 269 277 279 258 243 229 228 237 239
242 255 270 276 278 281 279 273 270 281 286 287 287 278 274 275 283 287 289 291 302 309 301 295 305 297 277 259 262 274 284 291 288 279 274 266 251 254